Location: Serin Observatory
(40.5200°N, 74.4500°W)
Time: 05:27:16
(UTC+00:00)

SL-8 R/B - Visible Passes

Search period start: 24 June 2018 00:00
Search period end: 04 July 2018 00:00
Orbit: 656 x 668 km, 48.4° (Epoch: 23 June)

Date Brightness Start Highest point End Pass type
(mag) Time Alt. Az. Time Alt. Az. Time Alt. Az.
24 Jun 3.9 01:36:03 10° WSW 01:40:53 78° NNW 01:45:44 10° ENE visible
24 Jun 5.4 03:19:31 10° WNW 03:23:56 34° N 03:28:22 10° ENE visible
24 Jun 5.2 05:02:52 10° NW 05:07:21 36° NNE 05:11:48 10° ENE visible
24 Jun 3.6 06:45:28 10° WNW 06:50:19 88° NNE 06:55:08 10° ESE visible
24 Jun 4.9 08:28:54 10° W 08:32:23 20° SW 08:35:50 10° S visible
25 Jun 4.9 02:07:26 10° W 02:12:05 45° NNW 02:16:45 10° NE visible
25 Jun 5.5 03:51:05 10° WNW 03:55:25 31° N 03:59:45 10° ENE visible
25 Jun 4.5 05:33:57 10° NW 05:38:41 52° NNE 05:43:23 10° E visible
25 Jun 4.0 07:16:38 10° WNW 07:21:12 43° SW 07:25:45 10° SSE visible
26 Jun 5.4 02:39:04 10° WNW 02:43:28 34° N 02:47:53 10° ENE visible
26 Jun 5.1 04:22:23 10° NW 04:26:53 36° NNE 04:31:21 10° E visible
26 Jun 3.6 06:04:58 10° WNW 06:09:49 87° SSW 06:10:28 67° SE visible
27 Jun 5.0 01:26:58 10° W 01:31:36 44° NNW 01:36:14 10° NE visible
27 Jun 5.5 03:10:37 10° WNW 03:14:57 32° N 03:19:17 10° ENE visible
27 Jun 4.3 04:53:27 10° NW 04:58:12 54° NNE 05:00:01 34° E visible
27 Jun 5.4 06:36:10 10° WNW 06:37:53 20° W 06:37:53 20° W visible
28 Jun 5.4 01:58:37 10° WNW 02:03:00 33° N 02:07:24 10° ENE visible
28 Jun 5.1 03:41:53 10° NW 03:46:24 37° NNE 03:50:22 13° ENE visible
28 Jun 4.1 05:24:28 10° WNW 05:28:16 55° WNW 05:28:16 55° WNW visible
29 Jun 5.4 02:30:08 10° WNW 02:34:29 32° N 02:38:49 10° ENE visible
29 Jun 4.2 04:12:56 10° NW 04:17:43 56° NNE 04:18:58 43° ENE visible
29 Jun 5.7 05:55:42 10° WNW 05:56:52 17° WNW 05:56:52 17° WNW visible
30 Jun 5.4 01:18:09 10° WNW 01:22:31 33° N 01:26:55 10° ENE visible
30 Jun 5.0 03:01:24 10° NW 03:05:55 38° NNE 03:09:50 13° E visible
30 Jun 4.1 04:43:57 10° WNW 04:47:46 55° WNW 04:47:46 55° WNW visible
01 Jul 5.4 01:49:40 10° WNW 01:54:00 32° N 01:58:22 10° ENE visible
01 Jul 4.1 03:32:26 10° NW 03:37:14 59° NNE 03:38:46 39° E visible
01 Jul 5.7 05:15:14 10° WNW 05:16:42 18° W 05:16:42 18° W visible
02 Jul 4.9 02:20:54 10° NW 02:25:27 39° NNE 02:29:51 11° E visible
02 Jul 3.8 04:03:27 10° WNW 04:07:47 67° W 04:07:47 67° W visible
03 Jul 5.3 01:09:12 10° WNW 01:13:33 32° N 01:17:54 10° ENE visible
03 Jul 4.1 02:51:55 10° NW 02:56:44 61° NNE 02:58:56 31° E visible
03 Jul 5.4 04:34:46 10° WNW 04:36:53 22° W 04:36:53 22° W visible
